Content
SEND FEEDBACK

Daily
Averages
Monthly
Summary
Taiwan

TA-YUAN, TAIWAN


Home > Asia > Taiwan
Elevation: 157 feet     Latitude: 25 01N     Longitude: 121 13E

WEATHER
 
SELECT A DAY
Number of Records: 238,831;   Date Range: 7/1/96 - 7/22/14
 
SHARE

PRINT THIS DATA

[ ← Previous Day ]
WEATHER ALMANAC - JANUARY 19, 2013
[ Next Day → ]
[ °C ]   °F
Weather ElementAverageHighLow
Temperature63.8 °F73.4 °F (1:00 pm)53.6 °F (6:30 am)
Dewpoint48.3 °F50 °F (8:00 am)46.4 °F (12:30 am)
Humidity58 %82 % (7:00 am)43 % (12:30 pm)
Barometer30.20 in30.27 in (12:30 am)30.09 in (3:00 pm)
Wind Speed14 mph19.6 mph (4:30 pm)
Wind Gust29.9 mph (9:30 am)
Weather ElementAverage
Visibility6.2 mi
Wind DirectionENE (83.4 °)

Weather ElementTotal
Precipitation---
Heating Degree Days1.5 (Base 65)
Growing Degree Days13.5 (Base 50)
Averaged from 47 records on January 19, 2013
WEATHER CONDITIONS BREAKOUT
WIND DIRECTION BREAKOUT
WEATHER BY HOUR - JANUARY 19, 2013
[ °C ]   °F
Local TimeTemperatureDewpointHumidityBarometerVisibilityWind DirectionWind SpeedGust SpeedPrecipitationEventsConditions
12:30 AM55.4 °F46.4 °F72 %30.27 in6.2 miENE (70°)16.1 mphMostly Cloudy
1:00 AM55.4 °F48.2 °F77 %30.27 in6.2 miENE (60°)13.8 mphMostly Cloudy
1:30 AM57.2 °F46.4 °F67 %30.27 in6.2 miENE (70°)15.0 mphMostly Cloudy
2:00 AM57.2 °F48.2 °F72 %30.27 in6.2 miENE (60°)15.0 mphMostly Cloudy
2:30 AM57.2 °F46.4 °F67 %30.24 in6.2 miENE (60°)13.8 mphMostly Cloudy
3:00 AM57.2 °F46.4 °F67 %30.24 in6.2 miENE (60°)12.7 mphMostly Cloudy
3:30 AM57.2 °F46.4 °F67 %30.24 in6.2 miENE (60°)12.7 mphScattered Clouds
4:00 AM55.4 °F46.4 °F72 %30.24 in6.2 miNE (50°)12.7 mphPartly Cloudy
4:30 AM55.4 °F46.4 °F72 %30.24 in6.2 miNE (40°)11.5 mphPartly Cloudy
5:00 AM55.4 °F46.4 °F72 %30.24 in6.2 miNE (40°)12.7 mphPartly Cloudy
5:30 AM57.2 °F46.4 °F67 %30.27 in6.2 miENE (60°)15.0 mphPartly Cloudy
6:00 AM57.2 °F46.4 °F67 %30.27 in6.2 miENE (60°)13.8 mphPartly Cloudy
6:30 AM53.6 °F46.4 °F77 %30.27 in6.2 miNE (50°)10.4 mphPartly Cloudy
7:00 AM53.6 °F48.2 °F82 %30.27 in6.2 miNE (50°)10.4 mphPartly Cloudy
7:30 AM59.0 °F48.2 °F67 %30.27 in6.2 miENE (60°)11.5 mphPartly Cloudy
8:00 AM60.8 °F50.0 °F68 %30.27 in6.2 miENE (70°)11.5 mphPartly Cloudy
8:30 AM62.6 °F50.0 °F63 %30.27 in6.2 miENE (60°)12.7 mphPartly Cloudy
9:00 AM64.4 °F50.0 °F59 %30.27 in6.2 miENE (70°)13.8 mphPartly Cloudy
9:30 AM66.2 °F50.0 °F56 %30.27 in6.2 miEast (80°)17.3 mph29.9 mphPartly Cloudy
10:00 AM68.0 °F50.0 °F52 %30.24 in6.2 miENE (70°)17.3 mphPartly Cloudy
10:30 AM69.8 °F50.0 °F49 %30.24 in6.2 miEast (80°)15.0 mphPartly Cloudy
11:00 AM69.8 °F50.0 °F49 %30.24 in6.2 miENE (70°)15.0 mphPartly Cloudy
11:30 AM69.8 °F50.0 °F49 %30.21 in6.2 miENE (70°)15.0 mphPartly Cloudy
12:00 PM71.6 °F50.0 °F46 %30.18 in6.2 miENE (70°)15.0 mphPartly Cloudy
12:30 PM71.6 °F48.2 °F43 %30.18 in6.2 miENE (70°)16.1 mphPartly Cloudy
1:00 PM73.4 °F50.0 °F44 %30.15 in6.2 miEast (80°)16.1 mphPartly Cloudy
1:30 PM71.6 °F50.0 °F46 %30.12 in6.2 miEast (80°)18.4 mphScattered Clouds
2:00 PM71.6 °F50.0 °F46 %30.12 in6.2 miEast (80°)18.4 mphScattered Clouds
2:30 PM71.6 °F50.0 °F46 %30.12 in6.2 miEast (90°)17.3 mph28.8 mphScattered Clouds
3:00 PM71.6 °F48.2 °F43 %30.09 in6.2 miEast (100°)18.4 mphScattered Clouds
3:30 PM71.6 °F48.2 °F43 %30.09 in6.2 miEast (90°)18.4 mph29.9 mphScattered Clouds
4:00 PM69.8 °F48.2 °F46 %30.09 in6.2 miEast (90°)18.4 mphScattered Clouds
4:30 PM69.8 °F48.2 °F46 %30.12 in6.2 miEast (90°)19.6 mphScattered Clouds
5:00 PM68.0 °F48.2 °F49 %30.12 in6.2 miEast (100°)18.4 mph29.9 mphScattered Clouds
5:30 PM68.0 °F48.2 °F49 %30.12 in6.2 miEast (100°)16.1 mph27.6 mphScattered Clouds
6:00 PM66.2 °F48.2 °F52 %30.12 in6.2 miEast (100°)17.3 mphScattered Clouds
6:30 PM66.2 °F48.2 °F52 %30.12 in6.2 miEast (100°)16.1 mphScattered Clouds
7:00 PM66.2 °F50.0 °F56 %30.15 in6.2 miEast (100°)15.0 mphScattered Clouds
7:30 PM66.2 °F48.2 °F52 %30.15 in6.2 miEast (100°)15.0 mph27.6 mphScattered Clouds
8:00 PM66.2 °F48.2 °F52 %30.15 in6.2 miESE (110°)13.8 mphScattered Clouds
8:30 PM66.2 °F48.2 °F52 %30.15 in6.2 miESE (110°)10.4 mph21.9 mphScattered Clouds
9:00 PM64.4 °F48.2 °F56 %30.18 in6.2 miESE (120°)10.4 mph23.0 mphPartly Cloudy
9:30 PM64.4 °F48.2 °F56 %30.18 in6.2 miESE (110°)9.2 mph21.9 mphPartly Cloudy
10:00 PM64.4 °F48.2 °F56 %30.15 in6.2 miSE (140°)6.9 mphPartly Cloudy
10:30 PM62.6 °F48.2 °F59 %30.18 in6.2 miSE (140°)6.9 mphPartly Cloudy
11:00 PM60.8 °F48.2 °F63 %30.18 in6.2 miSSE (160°)5.8 mphPartly Cloudy
11:30 PM60.8 °F48.2 °F63 %30.18 in6.2 miSouth (170°)5.8 mphPartly Cloudy
Hourly data recorded from RCTP, located miles away from Ta-yuan, Taiwan







STORIES FROM OUR PARTNERS